Regional Weather Roundup
Issued by NWS

Home | Current Version | Previous Version | Graphics & Text | Print | Product List | Glossary On
Versions: 1 2 3 4 5 6 7 8 9 10 11 12 13 14 15 16 17 18 19 20 21 22 23 24 25 26 27 28 29 30 31 32 33 34 35 36 37 38 39 40 41 42 43 44 45 46 47 48 49 50
000
ASUS43 KDMX 012307
RWRIA

WEATHER ROUNDUP FOR IOWA
NATIONAL WEATHER SERVICE DES MOINES IA
600 PM CDT TUE SEP 01 2015

NOTE: "FAIR" INDICATES FEW OR NO CLOUDS BELOW 12,000 FEET WITH NO
SIGNIFICANT WEATHER AND/OR OBSTRUCTIONS TO VISIBILITY.

* - THESE STATIONS ARE NOT NWS STATIONS...THUS NOT UNDER NWS
QUALITY CONTROL.  THEY ALSO DO NOT REPORT WEATHER SUCH
AS PRECIPITATION OR FOG.

IAZ001>003-012>014-020>022-031>034-043>046-020000-
   NORTHWEST IOWA

CITY           SKY/WX    TMP DP  RH WIND       PRES   REMARKS
CARROLL *      SUNNY     82  75  78 S9        29.93F HX  89
CHEROKEE *     PTSUNNY   84  75  74 S10       29.90S HX  92
DENISON *      SUNNY     81  73  78 S9        29.90F HX  85
LE MARS *      SUNNY     82  73  74 SE8G15    29.88S HX  88
ORANGE CITY *  SUNNY     81  73  78 S8        29.89S HX  85
SHELDON *      SUNNY     81  72  74 S10       29.88S HX  84
SIOUX CITY     MOSUNNY   85  72  65 MISG      29.86F HX  91
SPENCER        PTSUNNY   84  69  60 S10       29.91S HX  88
STORM LAKE *   SUNNY     81  73  78 S12       29.93S HX  85
$$

IAZ055>058-069>071-079>083-090>094-020000-
   SOUTHWEST IOWA

CITY           SKY/WX    TMP DP  RH WIND       PRES   REMARKS
ATLANTIC *     SUNNY     86  73  66 S10G16    29.93S HX  93
AUDUBON *      SUNNY     84  75  74 S7        29.95S HX  92
CLARINDA *     SUNNY     86  72  62 S8        29.95S HX  92
COUNCIL BLFS * SUNNY     84  73  70 SE13      29.91F HX  91
CRESTON *      SUNNY     84  72  65 S12       29.98S HX  89
LAMONI         MOSUNNY   87  68  52 S12       29.98S HX  90
RED OAK *        N/A     86  72  62 S9G16     29.93S HX  92
SHENANDOAH *   SUNNY     86  68  54 S9G18     29.93S HX  89
$$

IAZ047>049-059>061-072>074-084-020000-
   CENTRAL IOWA

CITY           SKY/WX    TMP DP  RH WIND       PRES   REMARKS
AMES           MOSUNNY   85  74  69 S10       29.94F HX  92
ANKENY *       SUNNY     88  72  58 S9        29.94S HX  94
CHARITON *     SUNNY     86  70  58 S9G16     29.97S HX  90
DES MOINES     PTSUNNY   88  70  55 S13       29.94S HX  93
GRINNELL*      PTSUNNY   84  73  70 S5        29.98S HX  91
KNOXVILLE *    SUNNY     84  73  70 S5        29.95S HX  91
MARSHALLTOWN   PTSUNNY   85  74  69 S10       29.95S HX  92
PELLA *        PTSUNNY   86  75  70 S6        29.98R HX  95
PERRY *          N/A     84  73  70 S6        29.94S HX  91
$$

IAZ004>006-015-016-023>025-035-036-020000-
   NORTH CENTRAL IOWA

CITY           SKY/WX    TMP DP  RH WIND       PRES   REMARKS
ALGONA *       SUNNY     82  73  74 S12G21    29.93R HX  88
CLARION *      SUNNY     81  75  83 S7        29.94S HX  86
ESTHERVILLE    CLOUDY    81  72  74 S8        29.91S HX  85
FORT DODGE *   PTSUNNY   82  72  69 S8        29.94S HX  87
MASON CITY     PTSUNNY   82  73  74 S9        29.95R HX  87
FOREST CITY *  SUNNY     81  72  74 S6        29.94R HX  84
IOWA FALLS *     N/A     84  73  70 S6        29.96S HX  91
$$

IAZ007>011-017>019-026>030-037>042-050>054-066-020000-
   NORTHEAST IOWA

CITY           SKY/WX    TMP DP  RH WIND       PRES   REMARKS
CEDAR RAPIDS   SUNNY     84  75  74 S7        29.97R HX  92
CHARLES CITY * SUNNY     84  77  79 SW12      29.95S HX  94
CLINTON *      SUNNY     86  73  66 SW9       30.00S HX  93
DECORAH *      SUNNY     82  75  78 S6        29.94F HX  89
DUBUQUE        MOSUNNY   85  73  67 SW13      29.98R HX  91
MONTICELLO *   SUNNY     86  75  70 S8        29.96S HX  95
OELWEIN *      SUNNY     82  75  78 S7        29.97S HX  89
WATERLOO       CLOUDY    85  74  69 S9        29.94S HX  92
$$

IAZ064-065-067-068-078-020000-
   EAST CENTRAL IOWA

CITY           SKY/WX    TMP DP  RH WIND       PRES   REMARKS
DAVENPORT      SUNNY     86  71  60 SW8       29.98F HX  91
IOWA CITY      SUNNY     87  72  60 S8        29.97F HX  93
MT. PLEASANT * SUNNY     90  64  43 SW6       29.99R HX  91
MUSCATINE *    SUNNY     91  70  49 SW7       29.97S HX  97
QUAD CITIES    SUNNY     88  71  57 S6        29.97S HX  94
$$

IAZ062-063-075>077-085>089-095>099-020000-
   SOUTHEAST IOWA

CITY           SKY/WX    TMP DP  RH WIND       PRES   REMARKS
BURLINGTON     SUNNY     88  69  53 S7        29.99S HAZE    HX  92
FAIRFIELD *    SUNNY     86  70  58 SW6       29.98S HX  90
FORT MADISON * SUNNY     86  70  58 S6        30.00S HX  90
KEOKUK *       SUNNY     90  70  51 S7        29.99S HX  95
OSKALOOSA *      N/A     86  70  58 SW7       29.98S HX  90
CENTERVILLE *  SUNNY     82  72  69 S8        30.01S HX  87
OTTUMWA        MOSUNNY   86  71  60 S10       29.97R HX  91
WASHINGTON *     N/A    N/A N/A N/A MISG        N/A
$$

ABBREVIATIONS USED IN REMARKS
   TC - TEMPERATURES IN CELSIUS
  WCI - WIND CHILL INDEX
   HX - HEAT INDEX
  VSB - VISIBILITY
$$




USA.gov is the U.S. government's official web portal to all federal, state and local government web resources and services.